GFSMA_500_rhum_336.txt.gz
RH
53 64 67 69 72 78 69 60 51 47 48 52 55 57 58 73 63 74 86 80 78 87 85 90 80 67 52 40 13 9 5 2 3 4 4 5 6 5 5 8 11 10 9
59 56 60 59 64 57 54 63 63 59 58 65 70 68 69 75 82 85 78 84 92 87 84 67 46 37 16 8 6 3 3 4 4 4 5 5 5 7 12 12 10 9 7
57 46 50 48 40 47 61 66 63 63 75 88 82 79 76 76 91 83 78 72 71 67 67 45 15 10 12 5 2 3 4 4 4 5 5 9 13 13 13 11 10 8 9
38 42 43 46 49 60 64 55 62 83 80 83 83 87 77 76 79 74 64 55 58 46 31 13 16 9 3 2 4 4 4 5 5 7 12 14 14 14 13 11 12 11 12
47 36 28 38 55 62 52 40 73 71 70 73 79 77 60 59 40 34 38 41 39 21 19 15 6 2 3 4 4 4 6 5 6 9 12 14 15 14 14 13 14 13 11
36 30 30 29 47 37 42 60 64 63 67 69 73 62 36 30 30 28 36 27 21 22 11 4 3 3 4 5 5 7 6 6 6 7 12 15 17 16 15 15 14 10 7
25 16 18 19 22 46 56 59 56 46 43 67 51 34 30 30 27 33 31 24 25 16 7 3 4 5 5 6 7 7 6 6 6 7 11 16 18 17 17 15 11 8 6
13 17 28 28 35 47 52 50 44 23 36 32 27 22 28 27 32 33 31 29 17 9 3 4 5 5 6 7 7 7 6 6 7 7 9 18 19 19 17 14 10 7 6
14 20 22 18 25 42 44 26 16 18 11 10 18 23 27 30 35 35 36 20 10 4 3 5 5 6 7 7 8 8 8 8 7 8 15 20 22 20 16 12 8 6 5
19 13 19 22 31 27 14 6 6 9 5 14 20 25 29 33 37 38 37 13 6 3 4 6 6 7 8 9 9 8 9 8 8 9 21 22 24 19 14 9 7 6 5
13 18 19 18 12 7 4 4 5 6 7 20 25 29 32 35 41 44 38 9 4 3 5 6 7 8 8 9 9 9 9 9 9 19 23 26 24 17 11 8 6 6 6
15 17 9 5 4 5 3 3 5 4 12 23 29 33 35 38 43 39 28 6 4 3 5 6 7 7 8 9 9 9 10 10 17 24 27 28 23 14 9 7 7 6 6
12 8 5 3 2 3 2 3 3 6 14 24 31 32 35 38 44 43 25 7 4 4 6 6 7 8 8 10 10 10 10 10 22 24 30 31 21 12 8 8 8 7 6
10 6 3 2 2 2 2 3 3 6 14 23 29 30 33 41 45 51 20 6 4 4 6 7 7 8 7 10 11 10 11 12 22 20 32 32 20 10 8 8 8 7 6
6 3 2 2 2 2 3 3 4 6 11 17 23 31 35 42 43 54 19 5 4 4 7 7 7 7 8 10 11 11 12 13 21 17 34 33 14 9 9 9 8 7 7
4 3 2 2 2 3 4 4 5 6 10 12 18 29 35 37 51 56 18 6 4 4 5 7 7 8 9 11 11 11 12 13 18 19 37 31 12 11 10 9 8 7 7
4 3 2 2 3 4 5 6 6 5 7 8 13 20 30 47 59 59 13 6 5 4 4 8 8 9 10 12 12 12 15 14 16 23 39 29 14 14 11 10 8 7 7
4 4 3 2 3 4 5 6 6 6 5 7 11 22 39 63 64 56 14 5 5 5 5 6 9 10 12 12 12 11 13 14 13 20 40 32 18 17 12 10 8 8 8
8 6 4 5 5 4 4 6 6 5 7 9 16 32 46 55 57 54 11 5 5 5 5 7 9 12 13 13 13 12 14 14 15 20 42 34 21 20 13 11 10 9 9
14 7 6 6 6 6 5 6 6 6 8 11 22 28 37 43 52 34 5 5 5 6 6 7 9 11 12 13 12 12 16 14 15 32 47 31 24 23 16 12 11 10 9
40 22 7 6 6 6 6 6 6 7 7 11 23 19 23 48 32 5 4 5 6 6 7 8 9 11 12 13 13 12 15 15 15 28 46 34 29 26 20 12 11 10 10
56 24 10 11 7 6 6 7 7 7 9 16 15 6 5 7 6 4 5 5 5 7 8 8 10 11 13 13 12 12 16 16 18 34 47 31 27 24 19 12 11 12 11
78 74 37 15 9 8 7 7 7 9 12 19 27 14 10 7 4 4 4 5 5 6 8 8 10 11 13 12 12 13 17 17 18 43 49 47 34 29 22 15 12 13 12
60 81 65 24 17 10 8 8 8 12 17 17 19 13 11 8 6 4 4 5 6 6 7 7 9 10 11 12 12 13 17 18 19 45 50 54 43 37 30 20 14 13 13
35 72 76 38 26 12 9 8 8 11 18 13 8 6 5 6 7 7 5 4 5 6 6 7 9 10 10 11 12 14 18 19 19 33 48 54 47 40 36 25 16 14 13
52 64 42 46 36 13 12 10 9 11 16 12 14 16 18 18 13 6 5 4 5 5 6 7 8 9 10 11 12 14 16 18 19 26 45 51 58 50 44 33 21 17 14

GFSMA_500_rhum_339.txt.gz
RH
37 48 56 57 63 66 68 50 44 51 57 60 62 75 72 75 72 71 70 64 56 60 65 59 48 34 16 15 13 5 2 3 3 3 5 6 7 9 11 12 11 11 10
55 59 57 65 71 57 40 34 49 50 51 53 56 63 74 75 71 68 70 59 40 49 44 32 22 17 18 7 2 3 4 3 4 4 5 6 9 13 13 13 12 11 11
58 57 44 37 29 36 46 43 51 37 47 55 63 63 75 70 61 50 32 26 30 36 26 21 21 16 4 2 4 4 4 5 4 4 4 6 10 14 15 14 13 12 12
47 38 32 38 40 34 33 41 43 47 50 52 56 50 68 55 37 27 26 25 28 23 25 22 10 4 3 4 4 4 5 5 4 5 6 7 10 16 17 15 14 13 10
46 43 34 34 27 27 34 25 46 51 51 44 43 38 52 32 28 26 25 25 25 24 22 12 3 3 4 4 5 5 5 5 5 5 6 6 11 18 17 16 14 12 10
43 40 32 30 20 22 28 37 40 46 30 24 14 32 24 18 23 27 27 30 28 26 15 3 2 4 4 5 5 5 5 5 6 6 6 7 18 19 18 16 13 11 8
36 41 25 18 18 24 31 30 31 29 13 6 9 9 16 19 23 24 28 32 29 17 5 3 5 5 6 6 6 6 6 6 6 6 8 18 19 19 19 15 12 10 8
38 31 13 12 29 27 21 26 15 8 3 4 4 9 15 21 25 28 34 32 22 14 3 4 4 5 5 6 6 7 7 7 6 7 18 16 20 21 19 14 12 9 6
30 18 10 20 24 18 20 14 8 2 3 3 3 9 16 20 28 33 34 30 20 8 3 4 5 5 6 6 7 7 7 7 6 14 16 16 22 22 17 13 12 8 5
24 6 15 16 19 16 10 5 3 2 2 2 3 10 17 26 30 37 32 30 20 5 3 5 5 5 6 6 7 8 7 7 7 13 14 14 25 23 16 12 10 7 5
7 14 9 14 16 5 4 3 2 2 2 3 5 11 22 31 31 32 27 34 18 5 3 5 5 6 7 6 7 8 7 8 8 13 13 13 27 24 15 13 9 6 5
11 7 13 14 5 4 2 2 2 2 2 3 4 8 18 26 34 36 25 37 11 4 3 5 5 6 6 6 7 9 8 8 9 12 13 17 31 21 14 12 8 6 5
8 8 10 8 4 2 2 2 2 2 3 3 4 7 12 15 25 37 34 37 11 4 3 4 6 6 6 7 7 9 8 8 10 12 11 25 34 19 13 12 7 6 6
10 11 7 5 2 2 2 2 3 3 4 3 5 7 11 16 18 32 39 45 12 4 3 4 5 6 7 7 8 10 9 9 11 11 9 24 37 21 15 11 6 7 6
11 8 4 2 2 2 3 4 5 5 5 4 5 6 8 12 16 20 42 52 15 5 4 4 5 6 7 8 9 10 10 10 12 12 11 35 40 20 16 10 7 7 6
11 6 3 2 2 2 3 5 6 6 6 5 5 6 8 13 19 31 51 53 21 5 4 4 4 6 7 10 11 10 10 10 12 13 17 39 39 20 16 10 8 7 6
8 4 3 2 2 2 3 5 6 6 6 6 5 6 8 15 26 47 53 53 30 5 4 4 5 6 9 10 11 12 10 10 12 14 19 42 36 20 16 12 9 8 7
6 4 4 3 2 3 3 4 5 5 6 5 6 7 8 22 32 48 45 52 24 4 4 4 5 6 8 10 11 12 11 11 14 15 21 45 35 22 17 13 10 8 9
6 4 5 4 4 5 5 5 5 5 6 6 6 8 10 17 25 35 38 45 6 4 5 5 6 7 8 10 10 11 12 14 16 16 25 45 41 24 19 15 12 9 9
6 12 7 7 6 6 6 6 6 6 6 6 7 7 12 11 18 31 33 6 4 5 5 6 7 8 9 10 12 12 11 13 17 16 29 45 49 33 24 19 13 11 11
12 23 23 15 7 7 7 6 6 6 6 6 8 8 12 7 6 6 6 4 4 5 5 5 6 7 8 10 10 10 11 11 15 16 27 44 51 45 32 24 13 13 14
21 47 48 33 10 10 10 7 7 7 7 6 8 10 14 11 8 7 5 4 4 4 5 5 6 7 8 10 10 10 10 12 15 16 17 35 50 49 39 30 17 14 15
61 68 66 61 27 30 17 10 10 9 8 7 9 11 19 12 10 10 8 6 4 4 5 5 6 6 8 9 9 9 11 13 15 16 17 20 41 56 50 37 26 17 14
44 39 48 72 73 67 31 23 20 12 10 8 12 15 14 10 8 6 7 7 7 7 6 6 5 6 7 8 9 10 11 12 15 17 18 23 37 56 63 49 36 23 16
69 46 38 29 29 73 48 35 27 17 10 8 11 17 10 11 13 16 17 16 8 6 5 5 5 6 6 7 8 9 10 12 14 16 17 22 36 56 66 65 46 34 22
92 71 45 63 57 65 42 39 34 19 10 9 11 15 13 15 17 18 16 13 12 11 7 5 4 5 6 7 8 9 10 12 14 16 17 22 36 59 69 78 64 46 36

GFSMA_500_rhum_342.txt.gz
RH
26 33 42 47 53 63 64 59 39 32 42 39 44 40 48 58 69 66 60 49 28 22 23 20 21 21 21 12 3 2 3 3 4 4 4 4 4 5 10 13 12 12 12
32 44 54 54 55 55 59 36 35 27 26 35 39 39 52 48 64 52 32 25 19 17 19 22 22 18 8 3 3 3 3 5 4 4 4 4 4 6 12 14 13 14 14
33 41 44 39 33 39 37 27 20 26 26 31 31 39 39 31 44 26 22 21 19 21 23 24 18 7 2 4 4 4 5 5 4 4 4 4 5 12 15 15 16 15 12
37 29 25 22 27 30 18 12 18 17 24 26 23 18 18 18 15 17 24 20 22 25 26 22 6 2 4 4 5 5 4 4 4 4 4 6 13 15 16 16 16 13 10
44 18 20 21 25 18 12 8 17 21 21 14 7 4 7 8 10 18 24 24 27 27 26 9 2 4 4 4 4 4 4 4 5 5 5 11 13 16 17 18 14 11 10
40 16 22 24 27 15 8 9 17 16 16 4 3 3 3 7 11 16 21 24 26 24 22 4 3 4 4 4 5 5 4 5 5 5 6 13 13 18 19 17 13 12 10
33 16 23 30 26 10 7 11 17 8 4 2 2 2 5 10 15 24 29 31 26 24 12 2 4 4 4 5 4 5 5 5 5 6 6 10 11 19 21 17 13 12 11
31 19 25 23 16 7 9 13 9 4 2 2 2 2 4 7 12 19 30 30 28 17 5 3 4 4 4 4 5 5 6 6 6 7 7 9 11 21 23 18 14 13 12
27 18 24 18 9 11 10 8 5 2 2 2 2 3 6 6 11 20 27 25 26 22 5 3 4 4 5 5 5 5 7 6 6 7 7 9 13 23 25 18 15 14 12
18 29 24 14 10 10 7 4 2 2 2 2 3 3 5 7 9 22 32 28 30 21 7 2 4 4 5 5 6 6 7 7 7 8 8 11 14 26 29 18 16 14 12
24 41 16 8 9 7 4 2 2 2 2 2 3 4 4 6 10 16 22 26 36 20 7 2 4 4 5 6 6 6 8 7 7 8 9 15 23 31 27 18 15 13 12
39 42 8 8 6 4 2 2 2 2 2 4 3 3 5 7 8 14 18 24 40 25 12 3 3 4 5 6 6 7 8 8 7 9 11 18 28 34 24 16 14 12 11
50 18 9 6 4 3 2 2 2 4 4 4 4 4 5 8 10 14 19 21 43 36 19 4 3 4 4 5 7 8 9 8 8 10 14 17 28 37 24 16 12 12 11
39 10 8 6 3 2 2 2 3 5 6 6 6 5 5 6 9 13 23 27 48 41 21 5 4 3 4 5 7 8 9 8 8 10 13 17 32 40 25 15 13 13 9
13 11 6 4 2 2 2 3 4 6 6 6 6 6 6 6 8 13 22 41 51 45 24 5 4 4 4 5 7 9 9 9 9 11 15 18 35 42 25 16 16 13 8
13 11 6 3 2 2 2 3 5 6 6 6 6 6 6 6 8 16 28 50 54 47 28 4 4 5 5 6 7 9 9 10 9 12 15 19 35 44 30 19 18 13 9
13 9 6 3 3 2 2 3 4 6 6 6 6 6 6 6 8 16 32 42 42 50 11 4 4 5 6 7 7 8 9 10 10 12 15 18 30 44 43 27 20 13 11
10 7 4 3 3 2 2 3 4 5 5 6 6 6 6 6 7 11 22 29 37 18 4 4 4 5 6 7 8 9 10 10 10 13 15 14 24 45 50 34 22 14 13
10 5 4 3 4 3 3 5 5 5 5 6 6 6 6 6 8 7 9 10 6 4 4 4 4 5 6 7 7 8 10 10 10 13 15 15 19 43 54 40 28 17 15
14 6 5 4 5 4 5 6 6 6 6 6 6 7 6 7 8 6 6 5 4 4 4 4 5 5 5 6 7 8 9 11 12 14 16 16 18 36 57 57 41 24 16
21 9 5 8 7 7 6 6 6 6 7 8 8 8 7 8 9 8 7 7 6 5 4 4 5 5 5 6 6 8 10 11 12 14 16 17 19 34 53 64 55 35 22
49 22 8 18 16 14 8 9 10 8 8 11 10 9 8 10 11 10 9 10 10 8 8 6 6 6 5 5 6 7 9 10 12 13 15 17 18 32 55 69 68 49 33
74 13 11 28 40 34 21 21 16 13 15 19 15 11 8 10 13 12 9 7 7 8 8 7 6 6 6 5 5 6 8 10 11 12 14 16 18 31 57 73 77 72 47
52 26 52 65 62 54 62 61 43 26 26 23 20 12 8 12 14 9 10 13 15 14 14 11 9 6 5 4 5 6 8 9 10 12 14 15 17 27 53 75 78 82 65
48 63 56 45 37 42 52 52 63 40 33 30 22 15 9 11 13 12 15 16 16 12 8 8 9 8 5 4 4 5 7 9 10 11 13 14 15 20 40 67 72 80 73
90 86 65 48 43 41 41 63 62 44 37 34 26 16 12 11 13 13 17 19 17 11 7 7 6 6 4 4 4 5 6 9 10 11 13 14 15 18 40 61 66 74 76

GFSMA_500_rhum_345.txt.gz
RH
43 34 31 47 49 53 63 66 60 28 23 16 24 26 26 16 19 16 29 12 14 14 14 16 19 20 11 2 2 3 3 4 4 4 4 3 4 5 9 10 13 14 14
49 46 33 52 51 46 38 55 33 25 13 16 23 15 9 6 6 12 8 10 13 13 17 18 22 10 2 3 3 4 4 4 4 3 4 4 5 9 12 15 15 15 12
57 55 35 36 32 28 37 37 27 12 12 14 16 5 3 3 4 4 8 11 12 16 17 26 11 3 3 3 4 4 4 3 4 4 4 4 5 10 16 16 16 15 12
66 61 48 27 25 20 27 23 12 8 10 13 8 2 2 2 3 4 9 13 13 15 21 22 4 2 3 4 4 4 4 4 4 4 4 5 6 11 18 18 18 15 13
75 72 58 20 21 19 21 11 8 8 11 6 2 2 2 3 4 5 9 12 13 13 26 14 2 3 3 4 4 4 4 4 4 4 5 6 8 15 19 20 19 16 14
82 81 59 14 18 21 18 9 6 7 7 2 2 1 2 3 4 7 11 15 13 15 26 9 2 3 4 4 4 4 4 4 5 5 6 6 10 20 20 22 21 17 15
73 77 52 13 19 23 12 8 5 6 3 2 2 2 2 3 4 7 10 11 13 16 25 7 2 4 4 4 4 4 4 4 5 5 6 6 15 20 22 24 20 19 17
65 75 56 15 19 14 8 7 6 4 2 2 2 2 3 4 5 10 15 16 16 21 25 9 2 4 4 4 4 4 5 5 6 6 7 7 21 20 24 26 22 20 17
62 72 58 16 20 14 6 6 5 3 2 2 2 3 4 5 6 11 18 22 20 27 26 11 3 3 4 4 4 5 5 6 6 6 8 11 19 19 27 29 20 18 22
64 78 44 24 22 7 6 7 4 2 2 2 2 3 3 4 6 6 11 17 18 28 28 14 3 3 4 4 4 5 5 7 7 7 8 12 19 20 29 32 20 19 24
69 79 28 38 17 6 6 4 2 2 2 2 4 4 4 5 5 6 11 17 19 26 32 24 7 3 3 3 4 4 5 7 8 7 8 10 17 17 29 34 20 21 24
72 60 28 44 10 7 5 3 2 2 2 4 5 5 5 5 5 6 10 18 20 29 40 30 12 3 3 3 4 5 6 8 8 7 9 12 15 13 30 37 22 21 26
77 28 39 37 9 5 4 2 2 3 4 5 6 6 5 6 6 7 8 17 18 35 44 33 16 3 3 4 4 6 7 8 8 8 9 12 14 12 36 43 31 25 29
75 20 49 22 9 6 3 2 2 3 5 6 6 6 6 6 6 6 8 14 23 38 44 37 14 3 4 4 5 6 7 8 8 8 10 12 12 16 42 48 38 24 28
48 42 51 11 7 6 3 2 2 4 6 6 6 6 6 6 6 7 10 15 28 36 45 37 6 4 4 4 5 6 7 8 8 8 10 13 12 20 43 51 40 25 25
32 57 37 10 7 7 2 2 2 4 6 6 6 6 6 6 7 7 9 15 26 33 37 18 4 4 4 4 5 6 7 7 8 9 10 13 13 21 43 56 48 32 22
40 60 25 11 6 5 2 2 2 4 5 6 5 6 6 7 7 7 8 12 22 28 24 6 4 4 4 4 5 5 6 7 8 9 11 13 14 23 42 59 62 48 27
62 58 17 11 7 4 2 2 2 3 5 5 5 6 6 7 6 8 7 6 8 12 8 4 4 4 5 4 5 5 6 7 8 9 11 14 15 18 42 61 66 61 36
83 30 16 10 8 3 2 2 2 4 6 5 6 6 7 8 6 7 7 6 5 5 4 4 4 6 6 6 5 5 6 7 8 9 11 14 16 17 40 61 65 68 50
65 24 17 9 6 3 3 3 4 6 6 6 6 8 9 10 8 7 7 6 7 7 7 7 7 10 9 7 6 4 5 7 8 9 11 14 15 17 34 55 60 68 64
46 26 15 8 6 4 4 4 5 6 6 6 7 10 13 14 10 8 9 8 8 9 9 10 10 10 9 8 7 5 5 7 8 9 11 13 15 16 25 48 56 62 66
54 38 18 13 6 5 6 6 6 6 8 9 9 15 17 14 12 8 10 9 9 8 7 8 9 10 9 9 7 4 5 6 8 9 11 12 14 15 22 42 54 57 61
87 27 21 27 9 9 11 10 10 8 10 12 13 20 22 17 14 9 12 12 8 8 11 14 11 10 9 9 6 4 4 5 8 9 11 12 14 15 19 34 52 53 59
69 49 82 70 30 11 20 24 22 23 25 19 20 25 25 19 16 10 13 12 11 13 14 13 8 7 7 7 6 4 4 4 7 9 11 12 13 14 17 26 49 44 49
88 63 48 74 26 8 28 35 37 52 56 44 29 25 28 24 21 14 12 14 12 14 16 14 9 9 9 10 7 5 4 4 6 9 10 11 13 14 16 18 34 47 40
52 42 70 67 33 31 46 42 34 48 48 56 43 30 31 29 26 21 13 14 12 14 18 17 14 13 14 17 11 7 5 4 6 8 11 12 14 18 17 22 22 44 46